Location: Sungai Kaluan
(2.5833°N, 114.1000°E)
Time: 23:46:01
(UTC+00:00)

Daily predictions for brighter satellites

Satellite Brightness Start Highest point End
(mag) Time Altitude Azimuth Time Altitude Azimuth Time Altitude Azimuth
CZ-3B Rocket 4.2 12:02:00 10° NW 12:06:01 27° NNE 12:06:01 27° NNE
USA 267 3.7 12:11:27 45° N 12:11:27 45° N 12:16:01 10° NNW
Cosmos 1802 Rocket 4.1 12:09:15 10° S 12:15:24 69° W 12:16:01 65° NW
Centaur AC-42 4.2 12:17:31 10° NW 12:56:09 - E 12:19:03 21° NNW
Lacrosse 5 3.5 12:20:56 10° WSW 12:24:47 31° WNW 12:24:47 31° WNW
Cosmos 2263 Rocket 4.3 12:34:36 10° NW 12:38:47 22° WSW 12:43:01 10° SSW
CZ-3B R/B 4.5 19:06:25 36° E 19:06:25 36° E 19:12:33 10° ESE
ATLAS 5 CENTAUR R/B 4.4 19:06:17 29° E 19:06:17 29° E 19:10:42 10° SE
Ariane H10+ 3.7 19:22:40 66° ENE 19:22:40 66° ENE 19:40:19 10° E
Cosmos 1980 Rocket 3.8 19:47:32 26° NE 19:49:06 30° ENE 19:53:57 10° SE
ATLAS 3B R/B 4.5 20:00:27 20° SSW 20:00:27 20° SSW 20:02:56 10° S
Cosmos 1697 Rocket 3.7 20:07:08 35° S 20:07:08 35° S 20:10:19 10° S
ARIANE 5 R/B 4.4 20:03:56 61° WNW 20:05:45 78° N 21:33:17 10° E
Ariane H10 3.3 20:12:35 66° W 20:13:38 85° N 20:46:04 10° E
Ariane H10 3.3 20:12:34 66° W 20:13:38 85° N 20:46:04 10° E
Ariane H10 3.3 20:12:35 66° W 20:13:39 85° N 20:46:04 10° E
Hubble Space Telescope 3.1 20:22:08 15° NNE 20:22:08 15° NNE 20:24:33 10° ENE
Cosmos 2278 4.2 20:26:19 15° N 20:31:00 59° ENE 20:36:35 10° SSE
Spot 1 4.4 20:28:35 10° SSE 20:33:44 87° ENE 20:36:43 25° N
Okean 2 Rocket 2.9 20:35:14 53° N 20:36:17 85° W 20:40:46 10° S
Cosmos 2150 Rocket 3.8 20:35:38 52° NW 20:36:47 72° WSW 20:41:54 10° S
SL-8 Rocket 4.4 20:31:40 10° N 20:37:44 63° E 20:43:47 10° SSE
ATLAS 3B CENTAUR R/B 2.2 20:38:20 46° WSW 20:39:58 85° NNW 20:49:16 10° ENE
Cosmos 1470 2.7 20:41:20 33° N 20:42:59 80° E 20:46:50 10° S
Meteor 1-22 Rocket 4.0 20:39:35 19° NNW 20:43:34 67° W 20:48:55 10° S
OAO 3 Rocket 4.5 20:44:47 25° SW 20:44:51 25° SW 20:48:50 10° SSE
Ariane H10 2.1 20:45:18 58° SSW 20:45:35 62° S 20:47:50 10° E
ARIANE 5 DEB (SYLDA) 2.8 20:46:39 32° S 20:46:39 32° S 20:48:42 10° ESE
ATLAS 5 CENTAUR R/B 3.5 20:47:53 30° W 20:48:46 31° WSW 20:55:08 10° S
GEOS 3 Rocket 3.9 20:44:30 10° N 20:49:14 41° WNW 20:50:08 37° W
Cosmos 389 Rocket 4.4 20:47:12 10° NNE 20:50:23 31° E 20:53:36 10° SSE
Cosmos 1726 2.8 20:53:27 37° SW 20:53:27 37° SW 20:56:10 10° SSW
FALCON 9 DEB 4.1 20:52:14 28° NNE 20:53:09 37° NE 20:55:55 10° SE
Envisat 3.9 20:48:20 10° NNE 20:53:14 51° ESE 20:58:09 10° S
HETE-2 4.5 20:55:46 42° WSW 20:57:03 75° S 21:01:08 10° E
Cosmos 405 4.1 20:59:28 27° SW 20:59:28 27° SW 21:01:31 10° SSW
Okean 1 Rocket 3.7 20:55:10 10° N 20:59:33 59° E 21:03:58 10° SSE
Milstar 3 3.3 20:54:02 16° WSW 21:03:06 64° NNW 21:10:06 10° NE
CZ-3B R/B 4.3 20:58:05 23° W 21:03:15 47° SSW 21:15:26 10° SE
FALCON 9 DEB 4.3 21:10:12 10° NNW 21:12:59 34° NE 21:15:46 10° ESE
CZ-4B R/B 3.7 21:12:10 10° N 21:16:00 85° WNW 21:20:02 10° SSW
Atlas Centaur 2 4.2 21:14:44 12° NW 21:16:27 13° NNW 21:19:12 10° N
Cosmos 2151 Rocket 4.4 21:13:57 14° NW 21:16:59 28° W 21:20:49 10° SSW
Cosmos 2341 Rocket 4.5 21:12:14 10° NNW 21:17:50 36° W 21:23:26 10° SSW
SL-08 R/B 4.5 21:16:11 10° SSW 21:19:43 22° WSW 21:22:08 15° WNW
NOSS 3-3 (A) 4.2 21:15:55 10° SW 21:20:41 32° WNW 21:25:33 10° N
NOSS 3-3 (C) 4.2 21:15:59 10° SW 21:20:46 33° WNW 21:25:40 10° N
BLOCK DM-SL R/B 0.7 21:21:20 21° WSW 21:22:18 44° S 21:25:02 10° E
USA 229 DEB 4.4 21:18:23 10° NNW 21:26:11 71° ENE 21:34:02 10° SSE
USA 229 4.4 21:18:30 10° NNW 21:26:18 70° ENE 21:34:08 10° SSE
Cosmos 1758 3.7 21:23:31 10° NNW 21:27:19 42° W 21:31:09 10° SSW
Cosmos 1025 Rocket 3.1 21:25:48 10° SSW 21:30:04 55° W 21:34:19 10° N
Cosmos 1953 2.9 21:28:30 10° N 21:32:25 60° E 21:36:20 10° SSE
Cosmos 1980 Rocket 3.5 21:29:24 11° WNW 21:32:47 19° WSW 21:36:37 10° SSW
Cosmos 1536 Rocket 4.2 21:33:00 10° S 21:37:24 61° E 21:41:45 10° NNE
Cosmos 1626 4.0 21:36:44 10° WSW 21:38:12 12° W 21:39:39 10° WNW
Cosmos 2366 rocket 4.5 21:33:31 10° NNW 21:39:19 39° W 21:45:08 10° SSW
SL-14 R/B 4.1 21:35:52 10° SSW 21:39:21 29° W 21:42:48 10° NNW
Cosmos 1908 3.1 21:37:53 10° N 21:41:39 75° W 21:45:26 10° S
Cosmos 1867 4.0 21:39:53 10° SW 21:44:52 38° WNW 21:49:52 10° N
Cosmos 1441 Rocket 4.2 21:42:03 10° SW 21:45:12 24° W 21:48:19 10° NNW
NOAA 11 4.4 21:40:57 10° NNE 21:46:21 78° ESE 21:51:47 10° S
NOSS 3-1 (A) 4.4 21:40:19 10° NNW 21:49:14 75° WSW 21:58:18 10° SSE
ATLAS 2AS CENTAUR RB 4.0 22:16:02 10° W 22:44:48 48° N 22:49:34 10° ENE
